Location: Hokitika
(42.7170°S, 170.9670°E)
Time: 09:47:06
(UTC+13:00)

H-2A R/B - Pass Details

Date: 24 January 2019
Orbit: 734 x 836 km, 98.3° (Epoch: 21 October)

Event Time Altitude Azimuth Distance (km) Brightness Sun altitude
Rises 22:33:53 0° 161° (SSE) 3,266 5.6 -13.6°
Reaches altitude 10° 22:36:20 10° 155° (SSE) 2,318 4.7 -14.0°
Maximum altitude 22:41:13 45° 82° (E) 1,023 2.3 -14.6°
Enters shadow 22:44:23 20° 17° (NNE) 1,686 3.3 -15.0°
